Location: Most
(50.5133°N, 13.6207°E)
Time: 02:10:25
(UTC+01:00)

Oscar 11 - Pass Details

Date: 04 December 2021
Orbit: 611 x 625 km, 97.6° (Epoch: 17 January)

Event Time Altitude Azimuth Distance (km) Brightness Sun altitude
Rises 04:18:16 0° 28° (NNE) 2,918 10.9 -32.3°
Reaches altitude 10° 04:21:22 10° 52° (NE) 2,002 10.3 -31.8°
Maximum altitude 04:23:53 15° 88° (E) 1,688 10.1 -31.5°
Drops below altitude 10° 04:26:23 10° 123° (ESE) 1,988 10.3 -31.1°
Sets 04:29:26 0° 147° (SSE) 2,884 10.9 -30.6°
